Temp
17 17 18 18 18 18 19 19 19 19 20 20 20 20 21 21 21 22 22 22 22 22 22 22 22 23 23 23 23 23 23 22 21 20 20 23 25 24 24 24 24 23 23 22 22 22 22 22 22 21 23 23 21 21 21 20 20 22 24 23 23 24 24 24 25 25 24 25 26 24 22 24 25 23 22 21 21 23 24 23 24 23 23 24 24 22 20 19
17 18 18 18 18 18 18 19 19 19 19 20 20 20 20 21 21 21 21 22 22 22 22 22 22 22 23 23 23 23 23 22 20 20 23 25 25 24 24 23 23 23 22 22 22 23 23 23 22 22 23 23 21 21 21 20 20 23 24 23 23 25 25 24 25 25 24 25 26 25 22 22 23 24 22 22 24 24 23 25 25 24 24 25 24 22 20 18
17 18 18 18 18 18 19 19 19 19 19 20 20 20 20 20 21 21 21 21 21 22 22 22 22 22 22 23 23 23 22 21 21 23 25 26 25 25 24 23 23 23 22 22 22 23 24 23 22 22 23 23 21 21 22 21 21 23 23 23 25 26 24 23 24 24 24 24 25 25 22 21 22 22 22 22 24 24 24 25 26 26 26 27 26 24 21 18
17 18 18 18 18 18 18 19 19 19 19 19 20 20 20 20 20 21 21 21 21 21 22 22 21 22 22 22 22 23 22 22 24 25 26 25 25 25 24 23 23 23 22 22 22 22 23 22 22 22 23 23 21 20 22 22 21 22 22 24 25 24 24 24 23 23 23 22 22 23 21 21 22 21 21 22 23 24 25 27 27 27 28 28 27 25 22 19
17 17 18 18 17 18 18 18 19 19 19 19 19 19 20 20 20 21 21 21 21 21 21 21 21 21 21 22 22 22 23 24 26 25 25 25 25 25 25 23 22 22 22 22 22 21 22 22 22 22 22 23 22 21 23 22 21 21 22 25 25 22 23 25 24 23 21 20 20 21 21 22 21 20 21 22 22 25 27 28 28 27 27 27 26 25 22 21
16 16 17 17 17 17 18 18 18 19 19 19 19 19 19 20 20 20 20 21 21 21 21 21 21 21 21 21 21 22 23 25 25 25 25 25 25 25 25 24 22 22 21 22 22 21 22 22 23 23 23 23 23 23 23 21 20 22 24 24 24 23 23 24 23 21 20 20 21 21 22 21 20 21 22 22 22 25 26 27 27 27 27 26 24 23 22 21
15 15 16 16 16 17 17 18 18 18 19 19 19 19 19 20 20 20 20 20 20 20 21 21 21 21 21 21 21 22 23 24 26 25 25 25 25 25 24 23 22 22 21 22 22 22 23 22 23 23 22 23 23 23 22 20 19 21 23 23 23 23 22 23 22 20 20 20 22 21 21 20 21 22 22 22 23 24 25 26 26 26 27 25 23 22 22 22
13 13 15 15 16 17 17 18 17 18 18 18 19 19 19 19 20 20 20 20 20 20 21 21 20 20 21 21 21 21 22 24 25 25 25 25 24 24 24 23 22 21 21 22 23 23 22 22 23 22 23 23 22 22 21 20 20 20 22 23 21 21 21 22 20 19 19 20 21 20 20 21 23 22 21 21 23 24 24 25 25 25 25 24 23 23 23 23
13 13 14 15 16 16 17 17 17 17 18 18 18 19 19 19 19 20 20 20 20 20 20 20 20 20 20 20 21 22 23 24 25 25 24 24 24 23 23 22 22 21 21 22 22 22 22 23 23 22 23 23 22 22 20 21 22 21 22 23 21 21 22 21 20 19 19 20 20 19 20 23 23 22 22 23 24 24 24 24 25 24 24 23 23 23 23 23
13 13 13 14 15 16 16 16 17 17 17 18 18 18 19 19 19 20 20 20 20 20 20 20 20 19 20 20 21 22 23 24 24 25 24 24 23 23 22 22 22 21 21 21 21 22 23 23 22 21 22 22 21 21 20 21 22 20 20 21 21 21 22 20 20 21 20 20 20 20 21 23 22 21 23 25 25 24 24 24 25 24 23 23 23 23 23 23
12 12 12 14 15 15 16 16 16 17 17 18 18 18 18 19 19 19 20 20 20 20 20 20 19 19 19 20 21 22 23 24 24 24 24 23 22 22 22 22 21 21 21 20 20 22 22 22 21 21 22 22 21 20 19 20 20 19 19 20 21 22 22 21 20 20 20 20 20 20 21 22 22 20 22 25 24 23 23 24 25 24 23 23 24 23 23 22
12 12 13 14 15 15 15 15 16 16 17 17 17 18 18 18 19 19 20 20 20 20 20 19 19 19 19 19 21 22 23 23 23 24 23 22 21 21 21 21 21 21 21 21 20 21 21 21 21 22 22 21 21 20 19 19 19 18 19 20 22 22 23 23 23 21 20 20 19 20 20 21 22 21 23 25 24 23 23 24 25 25 25 25 24 24 23 23
12 12 13 14 14 15 15 15 16 16 17 17 17 17 18 19 19 19 20 20 20 20 20 19 19 18 19 20 21 22 22 22 22 22 22 21 20 20 20 20 20 20 21 21 20 20 20 20 22 22 20 21 22 20 19 18 18 19 19 20 21 22 23 24 23 20 20 20 19 21 21 23 25 25 26 26 24 23 22 24 24 25 25 25 24 24 23 24
12 13 13 14 14 14 15 15 16 16 17 17 17 17 18 19 19 19 19 19 20 20 19 19 18 18 19 21 22 21 21 21 21 21 20 20 19 19 19 20 20 19 20 19 20 20 20 20 21 20 19 20 21 19 19 19 19 20 20 19 20 21 22 24 22 18 20 19 18 21 21 22 26 26 27 25 22 22 22 24 25 25 25 24 24 24 23 24
12 13 13 14 14 14 15 15 16 16 16 17 17 17 18 18 19 19 19 19 19 19 19 18 18 18 20 22 21 19 20 20 20 20 19 19 18 19 19 19 19 18 19 19 20 20 19 20 20 21 20 19 19 19 20 20 20 21 20 20 21 20 22 24 22 20 22 19 18 21 21 22 25 26 27 23 21 21 21 23 24 24 24 24 24 24 24 24
13 13 13 14 14 15 15 15 16 16 16 17 17 17 18 18 17 18 18 18 18 18 17 17 17 18 21 22 20 19 19 19 19 19 19 18 19 19 18 18 18 17 18 18 19 19 18 20 19 19 19 19 20 20 20 20 21 21 20 20 21 21 21 23 23 23 22 20 18 20 21 23 24 25 26 23 21 21 22 23 23 23 24 24 24 24 24 24
13 13 14 14 14 15 15 15 16 16 17 17 17 17 17 17 17 17 18 17 17 17 17 17 17 18 21 21 20 20 19 18 18 18 18 18 18 18 18 17 17 17 18 18 18 18 19 19 17 18 19 20 20 20 20 20 20 21 20 20 20 21 21 21 23 23 20 20 20 20 20 21 23 24 24 24 23 23 22 23 23 24 24 24 24 24 24 24
13 14 14 14 14 15 15 15 15 16 17 17 17 17 17 16 16 16 16 16 16 16 17 17 17 19 21 21 20 20 19 18 18 17 17 17 17 18 18 17 17 18 19 18 18 19 18 18 18 20 20 19 19 20 20 20 21 22 21 21 20 20 20 20 22 23 21 21 21 20 20 21 22 23 23 23 23 23 23 23 23 23 24 24 24 24 24 23
14 14 14 14 14 14 15 15 15 16 16 17 17 16 16 16 16 16 15 16 17 19 20 19 19 21 21 21 20 19 18 17 18 17 16 17 17 17 18 18 18 19 19 19 19 18 18 18 18 19 20 20 20 20 21 22 22 21 20 20 20 20 21 21 22 23 22 20 20 21 21 22 22 22 23 23 23 23 23 23 23 23 23 24 24 24 24 23
14 14 14 14 14 14 14 14 15 15 16 17 17 16 17 17 17 18 16 16 18 19 20 20 20 20 21 21 19 18 18 17 17 16 16 16 17 18 18 17 18 18 19 19 19 18 18 19 19 19 21 22 22 21 22 22 21 19 19 20 20 20 21 22 22 22 21 19 20 21 21 22 22 22 23 23 23 23 23 23 23 23 23 23 24 24 23 22
14 14 14 14 14 14 14 14 15 15 15 16 17 17 17 17 18 18 16 17 18 17 17 19 19 19 21 20 18 18 19 18 17 16 15 16 17 19 19 18 18 19 18 18 18 17 17 18 19 20 22 22 21 21 20 20 20 19 19 19 20 20 20 21 22 22 20 18 19 20 20 21 21 21 22 22 22 22 23 23 23 23 24 24 24 23 22 21
14 14 14 14 14 14 14 14 14 15 15 16 16 16 15 15 15 15 15 17 17 15 15 16 16 17 18 18 17 17 19 19 18 16 15 16 17 19 19 18 19 19 17 17 18 17 17 18 19 21 21 20 18 18 18 19 19 19 19 19 19 20 20 21 21 20 18 18 19 20 19 19 20 21 22 22 22 22 23 23 23 23 24 23 23 21 20 20
13 13 13 13 13 13 14 14 14 14 15 15 15 14 14 13 13 13 14 15 16 15 15 15 15 15 16 17 16 17 17 18 18 16 15 17 17 17 18 18 18 18 17 18 19 19 18 19 20 21 20 18 18 18 18 18 19 19 19 19 19 20 20 20 20 19 17 18 19 18 18 19 21 21 22 22 22 22 23 23 23 22 22 22 20 20 20 20
13 13 13 13 13 13 13 13 14 14 14 14 14 13 13 13 13 13 14 15 15 15 14 14 14 15 16 16 16 17 17 17 18 17 16 17 18 17 18 19 18 17 17 19 19 20 20 19 18 19 18 17 18 18 18 18 19 19 19 19 19 20 20 20 20 19 18 19 17 17 19 21 22 22 23 22 21 21 22 22 22 22 21 20 20 19 19 20
13 13 13 13 13 13 13 13 14 14 14 14 13 13 13 13 13 12 14 15 15 15 15 14 14 15 15 15 15 16 17 17 16 15 15 16 17 17 17 17 17 18 19 19 18 19 20 18 16 17 17 16 17 18 18 18 19 20 19 19 19 20 20 20 20 18 18 20 17 17 20 21 22 23 23 24 23 23 23 22 22 23 22 21 20 19 19 19
13 13 13 13 13 13 13 13 14 13 14 14 14 13 13 13 12 12 14 16 17 17 17 15 15 16 15 15 15 15 17 17 14 13 14 15 16 17 17 17 17 17 18 18 18 18 18 17 16 17 17 16 16 17 18 18 18 19 19 18 19 19 19 18 18 17 18 19 17 17 19 20 21 22 23 24 24 24 25 24 23 23 22 20 19 19 19 19
13 13 13 13 13 13 13 13 13 13 14 14 14 13 13 13 12 12 15 17 18 19 18 16 16 16 16 14 14 16 18 17 14 13 14 15 16 17 18 17 17 16 16 16 18 17 17 16 15 16 16 16 16 17 18 17 18 19 17 16 17 18 17 17 16 17 18 18 16 16 18 18 20 21 22 22 23 23 25 25 24 23 21 20 19 19 19 19
13 13 13 13 13 13 13 13 13 13 14 14 14 13 13 13 12 13 16 17 18 18 18 17 16 16 16 14 14 17 16 15 16 16 13 14 16 16 18 18 18 17 16 16 18 17 16 16 16 15 16 16 17 18 18 17 18 17 14 14 15 16 15 16 16 17 17 16 17 17 17 19 20 20 20 20 21 23 24 25 24 22 20 19 19 18 18 18
13 13 13 13 13 13 12 13 12 13 14 14 13 13 13 12 13 15 16 16 18 19 17 17 16 16 16 15 16 16 15 14 16 16 14 14 15 16 17 16 17 17 16 16 18 17 15 15 15 16 17 17 18 17 15 17 18 15 13 13 14 14 14 15 16 17 17 16 17 18 17 19 21 21 21 20 20 23 24 24 23 20 19 18 17 17 17 17
12 12 12 12 12 12 12 12 12 13 13 13 13 13 13 13 14 16 15 16 18 18 17 17 17 16 16 17 17 16 16 16 15 15 15 15 15 16 14 14 15 16 16 15 16 17 15 12 13 15 17 18 17 13 11 15 15 13 14 16 16 15 15 15 16 17 17 17 19 19 19 20 20 21 21 21 20 21 22 23 23 20 18 17 16 15 15 14
12 12 12 12 12 12 12 12 13 13 13 13 13 12 12 14 15 15 15 17 18 17 17 17 16 15 16 17 18 17 16 16 14 15 16 15 16 16 15 15 16 16 16 16 16 16 14 13 14 16 15 15 16 14 11 11 12 13 15 17 17 17 17 16 16 16 17 19 19 18 18 19 20 21 21 22 22 21 20 22 22 20 18 16 14 13 12 12
12 12 12 12 12 12 12 13 13 13 13 12 12 12 14 15 15 15 16 17 18 18 18 18 16 16 16 16 18 17 16 16 15 15 16 15 16 16 17 17 18 17 17 18 17 16 16 15 15 15 14 14 16 16 14 12 12 14 15 16 16 17 17 17 17 17 18 19 17 16 17 18 19 21 21 22 23 22 20 20 19 17 15 13 12 11 11 10
11 11 12 11 12 12 12 13 13 13 13 12 12 14 15 14 14 15 16 18 19 17 18 17 16 16 16 17 18 16 15 17 16 15 15 14 15 16 17 16 16 17 18 17 17 17 18 16 15 15 15 15 16 18 17 16 14 14 15 16 16 17 16 16 17 17 18 18 16 15 16 17 19 21 22 23 23 21 19 17 15 14 13 11 10 10 9 9
11 11 11 11 11 11 11 12 12 13 12 12 13 14 14 14 15 15 16 17 18 16 17 16 16 16 16 17 18 17 17 17 15 14 15 14 14 16 17 15 14 16 17 16 16 16 17 17 16 17 17 16 16 18 18 17 15 14 16 16 16 18 17 16 17 17 17 18 17 15 16 18 19 20 20 21 20 18 17 15 13 12 11 10 9 9 8 8
10 10 10 11 11 11 11 11 12 12 12 12 13 14 14 15 16 15 16 17 17 17 17 16 16 16 16 17 16 16 17 17 15 15 15 15 16 17 18 17 15 15 16 16 15 15 15 16 17 16 15 15 16 17 17 16 15 14 14 15 16 18 18 17 17 17 17 17 16 16 17 19 20 20 19 20 20 17 15 13 12 11 10 9 8 7 7 6
10 10 10 10 11 11 11 11 11 11 12 13 13 13 14 15 16 16 16 16 17 17 17 16 17 17 17 17 16 15 16 16 16 15 15 15 16 16 17 18 16 15 16 16 16 16 15 16 17 14 13 15 16 16 16 17 17 14 14 16 16 16 18 17 17 17 16 15 16 18 17 19 20 20 20 20 19 16 13 11 10 9 8 8 7 6 6 5
9 9 9 10 11 12 11 11 11 11 11 13 13 13 14 15 16 16 16 16 16 16 16 16 16 17 16 17 16 16 16 16 15 16 16 15 16 16 16 17 16 15 17 18 17 17 16 16 17 16 16 16 13 14 15 15 16 15 15 16 16 15 16 16 15 15 15 15 16 18 18 19 19 19 19 19 18 14 12 10 9 8 7 7 6 5 5 5
9 9 9 10 11 12 11 11 11 10 11 12 12 13 14 14 15 15 15 15 15 16 16 15 16 17 16 16 17 16 15 16 16 15 16 16 17 17 17 18 17 15 17 17 17 17 16 16 17 16 17 15 11 13 15 14 14 15 15 15 15 15 16 16 15 14 14 15 15 17 17 18 19 19 19 19 16 13 11 9 8 7 7 6 6 6 5 5
8 9 10 10 10 11 11 11 10 10 12 12 12 13 14 14 15 15 15 15 16 16 15 15 16 16 16 16 16 16 15 16 16 15 16 16 17 18 17 18 17 15 15 16 16 16 15 15 16 15 14 14 13 13 15 15 14 13 14 14 14 15 15 16 14 14 15 14 15 16 16 17 18 19 18 15 13 12 10 9 8 7 7 6 6 6 5 5
7 9 10 9 9 10 10 10 10 11 12 12 12 13 13 14 14 14 13 14 16 15 15 15 15 15 15 15 15 15 15 15 15 15 16 16 17 18 16 16 17 15 13 14 15 15 15 15 15 15 13 13 15 14 15 16 15 14 14 14 14 14 14 14 13 14 14 14 14 14 14 16 17 15 14 11 10 10 9 9 8 7 7 6 6 6 5 5
7 10 10 9 9 9 9 10 11 11 12 12 12 13 13 13 13 13 13 13 14 15 14 14 15 14 15 14 15 15 14 13 14 14 14 14 16 16 13 12 14 14 13 14 14 14 15 14 14 15 14 15 16 16 15 16 16 15 15 15 15 15 14 13 13 14 14 13 14 14 14 16 13 11 11 10 9 9 8 8 8 7 7 6 6 6 5 5
8 10 9 8 8 9 9 11 11 11 11 12 12 12 13 13 13 13 13 12 13 14 13 13 14 14 14 14 14 14 13 13 13 14 14 14 16 16 12 9 12 13 13 14 13 12 12 12 12 13 14 15 16 15 13 13 13 14 14 14 15 15 14 13 13 14 14 13 14 14 14 14 10 8 10 9 8 8 8 8 7 6 6 6 6 6 6 6
8 9 8 8 9 9 10 11 11 11 11 12 12 12 12 12 12 12 12 12 12 13 13 13 13 13 14 14 14 14 13 13 13 14 14 14 14 12 9 9 11 12 12 13 12 11 11 12 12 12 14 15 15 14 12 11 12 12 13 13 13 13 14 13 12 12 12 13 14 13 13 13 9 7 8 8 8 8 7 7 7 7 6 6 6 6 6 6
7 7 7 8 8 9 10 11 11 11 11 11 11 12 12 12 11 11 12 12 12 12 11 12 13 13 13 12 12 12 12 12 12 13 13 13 12 10 8 9 10 11 11 11 12 11 11 12 11 11 12 13 13 13 13 12 12 12 12 12 12 12 12 11 11 11 10 12 13 12 13 14 10 6 7 7 7 7 7 7 7 6 6 6 6 6 6 6
6 7 7 7 8 8 9 10 10 11 10 11 11 11 11 11 11 12 11 11 12 12 11 11 12 12 12 11 11 11 11 11 11 11 11 11 11 9 8 8 9 10 9 9 9 10 11 11 11 11 11 11 12 13 13 12 11 10 11 11 11 10 10 10 11 11 11 12 13 12 12 13 10 7 7 8 6 6 5 5 5 5 5 5 5 5 5 5
7 8 8 8 8 7 8 8 9 10 10 10 10 10 10 11 11 11 11 11 12 11 11 11 11 11 11 11 10 10 11 11 11 11 11 11 11 9 7 7 8 8 8 8 8 9 10 10 11 11 11 11 12 12 12 11 10 10 11 11 11 10 10 9 10 10 11 11 11 11 12 11 10 10 10 9 7 5 5 4 4 5 4 4 5 5 5 5
7 9 8 8 8 8 7 7 8 9 9 10 10 10 10 10 11 11 10 10 10 10 11 11 10 10 10 10 10 10 11 11 10 10 10 10 10 9 7 7 7 7 7 8 8 9 9 10 10 11 11 11 12 12 11 10 9 10 10 10 10 10 10 10 9 10 11 9 9 11 11 10 10 11 12 11 7 5 5 5 5 5 5 4 4 4 4 4
6 7 6 7 8 8 7 7 7 7 8 8 9 9 9 10 10 10 10 10 10 10 10 10 9 9 9 9 9 9 10 10 9 9 10 9 9 8 8 7 7 6 7 8 8 8 9 9 10 10 10 11 11 10 10 9 9 10 9 9 10 10 10 10 9 10 11 9 9 11 11 9 10 11 11 9 6 5 5 5 5 5 5 5 4 4 4 4
5 5 4 5 6 6 6 6 5 6 7 7 7 8 8 9 10 10 9 9 9 9 9 9 8 7 6 7 8 8 9 9 9 9 9 8 8 8 8 8 7 6 7 7 8 8 8 8 9 8 8 9 9 9 9 9 9 9 9 9 9 9 10 10 9 10 10 9 10 10 9 10 10 10 8 6 5 5 6 6 6 6 6 5 5 4 4 4
4 4 4 4 4 3 3 4 5 5 6 6 7 8 8 8 9 9 9 8 8 8 9 8 7 5 5 7 7 8 8 8 8 8 7 7 7 7 6 7 7 6 6 6 7 7 7 7 7 6 7 7 8 9 9 8 8 8 8 8 9 9 9 9 9 9 9 9 10 9 9 10 9 6 6 5 5 5 6 6 6 6 6 6 5 5 5 5
3 3 3 4 4 3 3 3 4 5 6 6 6 7 7 7 7 7 7 6 6 7 8 7 5 5 5 5 6 6 7 6 6 6 5 5 6 6 5 6 6 5 5 6 6 6 6 6 6 6 6 6 8 8 8 7 7 6 6 7 8 8 8 9 9 9 9 9 9 9 9 9 7 4 5 6 5 5 6 6 6 6 6 6 5 5 5 5
2 2 3 4 5 4 3 3 3 4 5 5 5 5 5 5 5 6 6 5 4 5 6 5 5 5 5 5 6 6 6 5 5 5 5 5 5 5 5 5 5 5 5 5 5 6 6 5 6 6 5 6 7 8 7 6 5 5 6 7 8 8 9 9 9 10 10 10 9 9 8 6 5 5 5 6 5 5 6 6 6 6 6 6 5 5 5 5
Height
842 842 841 841 841 841 840 840 840 839 839 838 838 838 837 837 836 836 835 835 835 834 834 833 832 832 831 830 829 829 828 827 826 826 824 820 819 820 820 820 820 821 822 823 824 825 826 828 828 828 828 829 831 831 832 832 831 832 833 838 836 832 831 826 825 824 821 818 814 816 819 818 817 815 814 814 814 811 808 803 801 799 796 793 791 791 792 792
842 842 841 841 840 840 840 839 839 839 838 838 837 837 836 836 835 835 835 834 834 833 833 832 832 832 831 830 829 828 827 825 825 824 821 819 819 819 819 819 820 820 821 823 823 824 825 826 827 828 828 829 832 832 832 832 832 832 833 838 833 824 822 819 818 817 818 817 813 814 817 819 816 814 814 814 811 809 808 800 796 797 792 789 789 790 791 791
841 841 841 840 840 840 839 839 839 838 838 837 837 836 836 835 835 835 834 834 833 833 833 832 832 831 830 830 828 828 826 825 824 821 818 818 819 818 818 819 819 820 821 822 823 824 824 825 826 827 829 830 832 833 832 832 832 830 833 836 826 817 819 818 817 816 815 814 814 814 816 818 815 813 814 814 811 809 806 797 793 793 788 785 785 786 789 790
840 840 840 840 839 839 839 839 838 838 837 837 836 836 835 835 834 834 833 833 832 832 832 831 831 830 830 829 829 828 825 825 822 817 817 818 818 818 818 818 819 820 820 822 823 824 824 825 826 827 829 831 832 833 831 830 830 830 832 828 818 817 819 816 815 815 814 817 818 816 817 816 812 813 813 812 813 807 798 790 788 788 784 782 783 783 787 788
840 839 839 839 838 838 838 838 837 837 837 836 836 835 835 834 834 833 833 832 832 831 830 831 830 830 830 828 829 827 826 829 822 815 817 817 817 817 817 817 818 819 820 822 822 824 825 825 826 828 830 830 832 833 829 827 830 830 826 818 815 820 820 812 811 815 817 820 820 818 817 813 811 812 809 810 812 801 789 783 781 781 780 780 781 783 785 786
839 838 838 838 837 837 837 837 836 836 835 835 835 834 834 833 833 832 832 831 831 830 830 830 829 829 829 828 829 826 829 831 820 815 817 816 817 817 817 817 818 819 820 821 822 823 824 825 827 828 830 829 830 830 827 827 830 828 820 816 815 817 817 812 812 817 818 820 819 816 813 810 812 809 803 805 804 791 782 780 778 777 777 778 780 782 783 783
838 838 837 837 837 836 836 836 835 835 835 834 834 833 833 832 832 831 831 831 830 829 829 829 828 828 828 828 828 827 830 826 815 816 817 816 817 816 816 817 817 819 820 821 821 822 823 825 826 827 829 829 828 827 826 828 831 830 821 816 816 815 816 812 814 817 818 818 814 813 813 809 808 805 800 799 794 785 780 777 776 775 775 777 778 779 779 779
838 837 837 836 836 835 835 835 834 834 833 833 833 832 832 831 831 830 830 829 828 829 828 828 827 827 827 827 827 828 828 821 814 816 816 815 816 815 816 816 817 819 819 820 819 820 822 824 825 826 828 827 826 826 828 829 829 830 821 815 816 817 814 812 814 817 817 816 813 814 813 804 800 802 798 793 788 782 779 775 775 775 774 776 776 776 776 775
837 836 836 835 835 835 834 834 834 833 832 832 831 831 830 830 829 829 828 828 827 827 826 826 826 826 826 826 827 828 823 815 814 815 814 815 815 815 815 815 817 818 818 819 819 820 821 822 822 823 824 824 825 825 828 829 824 822 818 815 816 816 812 812 814 815 815 812 812 815 810 799 797 801 791 780 780 778 777 774 772 774 773 773 774 773 773 772
836 836 835 835 834 834 833 833 832 832 831 831 830 829 829 828 828 827 827 826 825 825 825 825 824 825 825 824 827 826 815 812 814 813 813 813 813 814 814 815 816 816 818 818 819 819 819 819 819 821 823 824 825 825 827 827 821 819 820 818 816 814 810 812 812 810 811 809 809 812 806 796 797 803 788 771 774 775 775 774 770 773 773 771 771 769 769 769
836 835 834 834 833 833 832 832 831 831 830 829 829 828 827 826 826 825 825 824 823 823 823 823 823 823 823 823 825 820 811 811 813 812 813 812 812 814 813 814 815 816 817 817 818 818 817 818 819 822 824 824 824 827 827 823 820 823 824 820 815 812 808 808 809 807 808 807 804 807 806 797 799 803 787 771 774 775 775 774 770 771 770 769 768 766 766 764
835 834 834 833 833 832 832 831 830 830 829 828 827 826 826 825 824 823 823 822 821 821 821 821 822 822 822 822 819 812 809 811 812 811 812 811 812 813 813 814 815 816 816 817 817 817 818 819 819 822 822 822 824 827 826 823 824 825 825 823 815 810 806 799 799 801 803 804 802 806 809 800 795 791 776 770 773 774 776 773 769 768 767 766 765 764 762 760
834 834 833 833 832 831 831 830 830 829 828 827 826 825 824 823 822 821 820 820 819 819 819 820 820 821 823 818 810 807 809 810 810 810 810 810 812 812 813 814 814 816 816 816 817 817 819 819 819 821 822 822 823 824 824 824 828 825 824 826 819 814 806 793 795 802 802 803 801 804 807 793 782 777 768 769 772 774 776 772 767 766 765 765 763 762 759 756
834 833 832 832 831 831 830 830 829 828 827 826 825 824 822 821 820 819 819 818 817 817 817 818 819 820 822 814 805 806 807 808 809 809 809 810 811 812 813 813 814 815 815 816 817 817 818 819 820 821 822 822 822 823 823 825 826 822 824 825 822 821 808 791 796 804 802 802 800 802 806 790 775 771 766 768 772 774 775 769 766 764 763 763 761 760 757 752
833 832 832 831 831 830 830 829 828 827 826 825 824 823 821 820 819 817 817 816 816 816 816 817 818 819 820 811 804 806 806 807 808 807 808 809 810 811 812 813 813 814 815 816 816 817 818 819 821 821 823 823 823 825 825 825 822 821 825 821 818 821 808 792 793 797 797 800 802 802 801 788 775 770 766 769 774 775 774 768 765 763 761 760 757 756 753 747
832 832 831 831 830 830 829 829 828 827 826 824 823 822 820 819 818 817 816 815 815 815 816 817 817 818 819 810 804 805 805 806 806 806 807 808 809 810 811 812 813 814 815 816 816 817 818 819 822 824 824 823 823 826 827 828 823 819 824 820 814 814 807 799 792 788 792 799 802 801 794 784 775 770 766 768 771 773 772 766 761 760 757 754 752 750 748 745
831 831 831 830 830 829 829 828 827 826 825 824 822 820 819 818 817 816 815 815 815 815 816 817 816 818 815 807 805 805 804 805 805 805 806 807 809 810 811 812 814 815 815 816 817 818 819 821 825 825 823 823 823 826 832 835 825 815 817 818 814 811 809 805 793 787 793 797 797 798 794 786 777 771 768 767 768 769 767 762 757 755 752 748 746 745 744 744
831 830 830 830 829 829 829 828 827 825 824 823 821 819 819 818 817 817 816 815 816 816 817 817 818 820 813 804 804 804 803 804 804 805 806 806 809 810 810 812 813 814 815 817 818 818 821 822 825 823 822 825 824 826 832 828 814 806 810 812 810 810 811 808 798 790 791 793 794 796 792 784 777 773 770 766 764 766 762 757 754 750 746 744 742 741 741 743
830 830 830 829 829 829 828 827 826 825 824 822 820 819 819 818 817 817 817 817 816 815 816 816 815 816 811 803 802 802 802 804 804 804 805 806 808 810 810 812 812 813 816 818 819 819 821 823 827 827 822 818 817 818 817 809 803 807 812 812 810 809 805 801 796 788 790 795 794 791 784 778 775 772 769 764 761 762 756 751 750 746 744 742 738 737 740 742
829 829 829 829 828 828 828 827 826 825 823 821 820 819 819 820 818 817 817 816 814 812 812 811 809 808 805 801 800 802 802 803 803 804 805 806 807 809 811 813 814 815 816 817 819 819 820 823 825 821 813 806 806 807 805 803 808 815 817 815 812 810 803 796 791 786 791 798 790 785 781 775 773 769 766 763 758 755 751 749 747 743 742 738 735 737 740 741
829 828 828 828 828 827 827 826 826 825 824 822 820 819 821 823 822 821 820 815 810 810 810 807 806 806 802 800 801 802 802 802 802 804 806 806 807 809 810 812 815 816 816 817 820 822 823 823 818 809 803 802 805 807 808 810 813 815 816 814 811 809 802 794 791 787 791 798 790 783 781 776 772 766 761 759 755 751 748 748 746 740 736 733 734 739 740 741
828 828 828 828 827 827 826 826 825 825 824 823 821 821 823 824 824 825 824 818 811 808 808 804 804 804 800 800 802 803 804 804 804 805 806 807 808 808 809 812 814 814 818 820 820 823 824 820 812 804 802 808 812 813 815 816 815 815 815 816 814 809 801 792 790 791 796 800 789 782 783 777 769 760 753 751 751 748 745 745 742 735 731 732 737 741 741 742
827 827 828 827 827 827 826 825 825 824 824 823 823 823 824 824 824 824 825 824 815 806 804 803 804 804 801 801 802 803 806 806 804 805 805 806 808 810 809 811 813 815 818 817 814 818 819 813 806 802 805 812 815 815 818 817 814 813 813 815 812 806 804 799 793 795 800 798 791 789 785 771 758 751 747 747 747 744 741 740 736 730 731 736 741 743 742 740
826 827 827 827 827 827 825 825 825 824 824 823 823 824 824 824 824 825 824 822 818 807 802 803 803 803 802 802 801 802 805 805 804 805 804 805 807 810 809 808 813 817 815 811 809 809 808 806 806 805 809 814 815 815 818 817 810 807 809 812 808 801 803 800 793 796 797 793 796 794 776 757 751 749 744 744 747 744 740 736 730 729 735 739 741 742 741 740
825 826 826 826 827 826 826 825 824 824 823 823 824 823 824 824 823 825 823 821 819 808 801 803 803 803 802 802 802 802 803 804 805 805 805 805 806 808 810 809 812 812 808 808 811 808 803 806 809 809 812 815 816 815 815 815 808 804 805 806 802 798 800 798 797 803 802 794 798 798 783 763 751 749 746 742 743 741 735 730 727 732 737 739 740 742 742 743
824 824 824 825 825 825 826 824 823 824 823 823 824 823 823 823 823 824 823 823 818 803 799 803 803 803 802 802 804 803 803 805 807 807 806 807 806 807 809 811 812 812 810 810 813 811 807 808 809 810 813 816 820 816 809 810 811 808 804 801 800 801 803 804 806 810 805 797 799 803 800 782 757 751 749 743 742 737 727 724 728 734 738 739 741 742 743 745
822 823 823 824 824 825 825 824 824 823 823 823 822 823 823 822 824 823 822 825 816 800 800 804 803 803 802 803 804 802 804 807 807 807 807 807 806 806 808 809 812 813 814 815 814 811 808 810 813 814 814 816 819 812 802 807 812 808 805 805 804 804 807 809 811 811 805 801 801 801 804 795 770 756 751 746 745 737 725 724 727 733 738 741 743 744 745 746
820 821 821 822 822 823 823 823 823 822 823 823 822 823 822 821 824 821 824 832 816 797 799 802 802 802 801 804 803 802 807 807 806 807 807 807 806 806 807 807 808 810 812 815 813 809 808 811 813 813 816 815 809 802 800 805 808 807 811 814 810 810 812 811 810 808 806 807 803 797 801 796 771 756 754 753 748 738 729 729 731 735 742 745 746 748 748 747
818 819 819 821 821 821 822 822 822 822 822 822 822 822 821 822 823 820 831 835 809 794 801 801 800 803 802 804 804 804 807 807 806 807 807 808 806 806 808 807 808 809 811 812 808 806 809 812 812 811 812 807 800 803 807 804 804 811 816 815 813 815 814 813 810 804 807 809 800 793 796 789 767 751 752 756 751 742 735 735 738 742 747 749 751 753 752 751
816 817 818 819 820 820 821 821 821 821 821 821 821 822 821 822 824 829 838 828 803 798 802 799 800 805 804 803 804 805 806 806 808 808 808 809 807 807 810 811 811 810 811 813 809 805 809 816 815 809 804 799 800 812 817 810 810 815 814 808 810 811 811 812 808 804 809 802 787 782 783 783 775 756 749 752 751 747 742 738 740 746 750 753 757 760 760 760
814 815 816 817 819 819 820 821 820 820 821 821 821 821 823 823 827 835 833 813 801 803 800 799 805 806 805 804 803 805 806 808 809 808 807 809 808 808 811 810 810 811 811 811 809 807 810 814 810 802 800 801 802 810 819 819 817 815 811 808 809 807 806 808 807 809 810 793 779 780 780 782 779 761 749 748 744 745 746 741 741 748 755 759 764 768 768 768
813 814 814 816 817 818 819 819 818 819 820 820 821 821 824 829 830 829 820 805 803 803 797 801 807 805 806 806 803 806 808 807 809 808 808 811 811 808 808 806 805 809 810 806 805 805 804 804 802 800 802 803 801 804 813 818 817 815 813 814 815 812 810 809 805 805 800 787 786 790 787 785 774 756 749 744 736 740 745 746 750 756 763 767 771 774 774 774
812 812 813 814 815 816 818 818 818 819 820 821 822 820 826 834 828 818 812 804 802 801 797 801 805 805 807 804 802 807 808 805 807 809 809 813 814 808 806 806 806 807 808 807 807 804 798 797 801 802 799 799 799 800 803 806 812 815 811 812 815 816 819 816 808 803 795 786 791 796 793 786 770 752 745 739 737 742 746 753 760 764 769 774 776 779 779 778
811 811 812 813 814 815 816 817 818 818 819 820 822 823 829 831 820 813 811 803 799 800 800 802 805 806 806 803 802 803 804 804 806 810 811 813 815 808 804 807 809 808 809 812 813 811 808 802 798 796 793 795 797 793 792 798 807 809 803 805 807 804 811 813 805 802 794 784 789 798 793 779 764 753 745 741 743 748 753 759 766 770 775 779 780 782 783 782
810 811 812 812 813 814 814 817 817 818 819 820 822 826 826 819 810 810 809 802 799 800 801 802 803 806 805 803 804 802 801 803 805 809 810 809 808 803 798 799 805 807 809 816 816 816 819 805 791 794 796 796 795 790 791 797 805 809 806 806 804 794 794 800 796 793 794 792 790 791 782 763 751 748 744 742 746 753 761 766 770 775 779 781 783 784 785 786
809 809 810 810 811 812 813 815 816 817 818 819 825 825 817 809 804 805 803 799 800 800 801 803 802 805 805 801 804 805 802 802 806 807 807 807 804 800 795 792 796 801 801 807 809 809 814 801 788 797 799 792 791 790 792 794 798 809 811 802 796 791 788 794 796 791 797 803 787 774 771 757 748 748 743 743 749 757 768 774 776 781 783 784 787 789 791 792
808 808 808 808 808 809 811 813 815 817 818 819 823 818 809 805 801 800 800 800 800 799 803 808 804 803 805 802 801 804 803 803 806 805 804 804 799 795 795 791 791 794 789 792 798 797 802 796 785 790 791 789 794 794 792 792 793 801 804 793 790 794 793 795 802 801 803 804 784 768 767 761 758 758 749 745 753 764 773 779 783 787 789 790 793 794 794 793
806 807 806 805 806 807 809 812 813 816 819 819 817 810 805 803 798 797 799 799 800 800 804 810 804 799 802 803 800 801 803 803 804 805 802 800 794 788 790 788 787 791 786 787 794 793 797 796 785 782 784 788 797 798 792 792 793 794 794 790 791 797 795 793 802 806 803 800 787 773 768 762 760 756 748 748 758 769 778 783 787 790 791 793 794 794 794 793
805 807 804 802 803 805 807 810 812 815 818 816 813 808 802 799 796 797 798 797 798 801 804 805 802 800 800 801 800 800 803 801 801 803 801 798 792 784 784 785 785 791 791 790 793 792 795 798 789 784 789 791 794 797 792 790 794 797 796 794 794 795 792 791 797 798 795 795 789 782 777 766 756 750 753 763 770 774 780 785 789 792 793 794 794 794 795 794
805 805 802 800 801 803 805 809 811 813 812 808 806 803 800 798 798 798 798 798 797 799 801 800 800 801 798 797 798 798 802 802 799 801 800 796 792 785 786 788 786 791 796 794 795 794 794 798 792 786 792 793 788 788 785 781 786 793 795 794 794 794 792 794 797 792 791 793 789 788 783 768 759 761 767 777 782 782 784 786 790 793 793 794 795 795 796 795
804 802 800 799 800 801 805 808 809 808 806 804 802 800 799 799 799 799 799 799 798 797 798 799 799 800 800 800 798 798 803 804 801 802 802 799 795 791 795 799 792 792 797 795 796 796 795 797 795 788 788 787 779 778 779 777 778 782 784 783 783 787 792 798 797 788 788 789 784 785 779 766 771 780 779 785 789 787 788 788 791 794 794 795 796 795 795 795
801 799 799 799 800 801 803 805 804 804 803 801 799 799 799 798 798 799 799 800 800 798 799 800 799 799 800 799 798 798 802 803 801 801 801 797 792 792 800 806 799 795 796 795 797 800 800 801 801 795 787 780 775 778 783 785 784 785 785 782 781 784 788 793 791 783 783 782 776 779 774 768 782 790 785 788 791 789 791 791 792 795 795 796 795 794 794 792
799 798 798 799 800 801 802 803 802 802 800 797 796 798 798 799 800 800 800 801 801 800 800 800 798 798 798 797 797 798 800 803 800 796 797 796 794 799 806 807 803 801 801 799 800 804 805 802 801 796 786 780 778 780 786 789 789 789 789 788 789 788 786 790 791 790 791 783 775 780 774 768 784 794 790 793 793 791 793 792 792 795 795 796 796 794 794 792
800 801 800 800 799 800 801 800 798 799 799 797 799 799 798 799 800 800 801 800 799 800 802 801 798 798 799 800 801 801 802 804 800 795 797 798 799 807 810 806 805 805 805 804 803 805 806 803 803 803 796 790 785 782 784 787 789 793 793 793 794 792 791 793 792 795 797 784 777 783 772 763 781 796 795 795 795 793 795 794 793 794 794 795 796 794 794 793
801 801 801 801 800 800 800 797 796 798 799 800 802 801 800 799 797 797 800 800 798 800 802 802 800 799 801 803 805 805 804 805 804 803 804 803 803 808 811 809 807 807 808 810 808 807 806 803 804 806 805 802 795 787 786 790 795 799 798 796 797 798 800 798 793 793 791 778 774 779 772 766 781 794 791 790 794 795 797 799 798 797 797 797 796 795 794 793
798 797 800 802 801 801 802 800 799 798 798 801 803 800 799 799 796 795 798 798 798 798 799 799 801 802 803 804 806 806 802 803 806 806 804 803 803 807 813 812 809 810 812 812 811 809 809 806 803 801 802 801 795 788 789 796 801 800 797 796 797 798 801 803 802 796 789 784 782 779 775 774 778 780 778 780 791 796 797 799 799 798 799 798 797 797 795 793
797 794 797 801 801 802 803 803 802 800 799 801 801 798 797 797 796 796 797 798 799 799 798 799 800 802 804 804 805 805 802 803 807 806 804 804 804 808 814 813 812 814 812 811 812 810 810 808 802 799 798 796 792 791 793 800 803 800 800 800 797 796 797 799 800 794 789 794 790 776 775 780 777 771 768 773 788 797 796 797 797 796 796 797 796 796 795 794
798 796 797 799 798 799 800 801 803 803 803 802 801 799 798 797 796 797 798 800 800 800 800 801 803 805 807 807 807 808 806 806 808 808 806 807 809 811 811 812 815 817 813 812 812 810 810 806 799 798 798 794 793 795 797 801 802 800 800 800 797 795 793 793 794 790 789 793 787 776 777 780 774 769 769 778 790 795 793 794 794 793 793 793 794 794 793 792
800 800 801 801 800 801 802 803 805 806 805 805 804 802 800 798 797 797 801 803 803 801 801 803 808 813 814 812 811 810 808 807 808 808 809 812 814 814 812 811 815 817 815 814 812 811 812 808 804 807 806 801 800 799 798 800 801 799 799 798 795 792 789 789 790 787 787 787 781 779 780 775 769 771 777 787 793 791 790 791 789 789 790 789 791 791 789 789
801 801 802 803 804 807 809 808 807 807 806 806 805 801 801 801 800 799 802 806 806 803 802 806 812 818 818 814 813 812 810 810 810 810 814 816 815 817 818 816 816 818 818 817 815 814 814 812 811 815 815 809 804 801 801 802 803 803 802 797 793 791 790 790 789 785 786 784 778 778 777 770 773 782 786 789 791 789 788 788 786 786 787 787 788 787 786 785
801 801 801 802 803 807 811 811 809 809 808 806 805 802 802 804 804 804 806 809 809 805 805 810 815 818 819 817 817 815 813 815 816 815 819 820 817 819 821 819 820 822 821 819 818 817 818 819 816 817 819 812 803 802 804 804 806 809 806 798 791 790 789 785 782 780 780 777 774 774 771 769 778 789 789 787 789 789 787 785 784 784 784 785 786 785 784 783
802 802 802 802 802 805 810 812 812 810 807 806 805 805 807 809 809 808 808 812 814 812 810 813 814 815 817 817 816 815 814 817 819 819 820 820 819 820 821 820 822 823 821 820 820 817 818 820 818 817 820 813 803 803 808 813 817 809 795 787 784 782 781 777 775 773 770 769 772 772 772 777 785 789 788 786 787 788 785 783 782 782 782 783 783 782 781 780
Wind_Speed
4 5 5 5 5 5 4 4 4 3 3 3 3 3 3 4 4 4 4 4 4 4 5 5 5 6 6 7 8 8 10 10 8 6 8 7 6 7 7 4 4 11 13 9 10 10 8 6 6 6 6 4 1 0 1 1 1 2 2 3 4 4 4 4 7 5 1 5 5 2 4 6 6 2 1 2 6 9 10 11 10 9 11 15 13 9 9 8
4 4 4 5 5 5 5 5 5 5 5 5 5 5 5 5 5 6 6 6 6 6 6 6 6 6 6 7 8 9 12 11 7 8 9 5 4 4 6 7 6 10 14 12 12 11 7 6 7 6 4 3 0 0 1 1 1 3 2 3 5 4 2 4 6 5 4 7 8 3 3 5 7 3 0 5 9 7 11 14 11 12 16 18 17 16 15 11
4 4 4 5 5 5 6 6 6 6 6 6 7 7 7 7 7 7 7 7 8 7 7 7 7 7 7 7 7 9 11 9 6 5 5 4 3 3 4 7 7 10 14 13 12 11 6 6 9 7 4 2 0 1 2 2 2 3 2 5 7 6 4 4 7 8 8 8 10 8 2 4 6 3 1 5 10 9 13 15 11 13 15 13 13 14 13 12
5 5 5 5 5 6 6 6 6 6 6 7 7 7 8 8 8 9 9 9 9 9 9 8 8 8 7 7 6 9 10 8 4 5 8 4 1 1 3 7 8 11 14 11 10 10 5 7 9 4 3 3 1 1 3 3 2 2 4 8 6 2 5 7 9 9 7 4 8 8 4 8 5 3 5 6 8 10 13 15 14 14 15 13 9 8 9 10
5 6 6 6 6 6 6 6 6 6 6 6 6 7 7 8 9 9 10 10 11 11 11 11 10 9 8 7 6 8 8 5 1 7 6 1 2 1 3 6 9 12 14 11 9 9 7 8 7 2 2 3 2 2 4 5 2 2 7 11 7 2 5 7 6 5 3 1 5 7 7 8 2 3 9 9 8 11 12 15 15 15 15 14 10 4 5 8
6 6 6 6 7 6 6 6 6 6 6 6 6 6 7 8 8 9 10 11 11 12 13 12 11 11 9 8 5 4 4 4 2 6 4 3 5 3 3 7 10 14 14 11 11 10 7 7 6 4 3 3 5 6 3 4 3 6 8 9 10 7 8 6 1 2 3 4 7 7 7 5 4 9 10 12 15 17 18 19 19 18 17 11 7 5 7 9
5 6 6 7 7 6 6 6 6 6 6 6 7 7 8 9 9 10 10 11 11 11 13 12 12 11 10 7 3 1 1 6 8 7 7 9 8 4 6 9 13 16 15 13 12 9 6 7 7 4 3 4 5 7 3 3 4 7 9 7 8 7 10 9 2 2 3 7 9 6 8 10 13 11 5 11 18 21 22 21 20 21 19 9 7 11 12 12
5 6 7 7 7 7 6 6 6 6 6 7 7 8 9 9 10 11 11 12 12 11 12 11 11 10 8 3 1 2 3 9 14 12 11 12 9 6 9 12 15 17 15 15 13 9 7 8 8 4 5 6 3 5 3 3 6 9 12 8 4 4 9 9 4 5 6 9 8 6 11 19 18 8 8 15 19 20 21 22 20 19 18 12 12 15 14 14
5 6 8 8 8 7 7 6 6 6 7 7 8 9 9 10 10 11 12 12 13 12 11 11 10 8 6 1 1 4 5 10 13 12 11 11 10 9 12 13 16 18 15 14 12 10 8 8 8 5 5 4 3 4 4 5 6 8 11 8 5 8 9 7 6 8 9 7 5 7 16 21 12 5 15 20 19 20 18 21 19 15 16 13 13 14 13 14
6 7 8 8 8 7 7 6 7 7 8 8 9 10 11 11 12 12 13 13 14 13 12 11 9 7 5 2 3 6 5 6 8 8 8 9 10 11 15 13 17 20 14 12 12 11 8 6 5 3 2 1 4 4 4 6 3 1 5 8 9 13 11 6 8 10 8 8 9 11 18 20 5 2 13 12 8 11 12 16 16 11 13 13 11 12 11 13
7 7 8 8 7 6 6 7 7 8 8 9 10 11 11 12 13 14 14 15 15 15 13 11 8 6 4 4 5 7 3 4 6 6 8 9 10 13 16 14 17 20 13 9 13 14 7 3 8 4 1 2 3 3 4 4 2 3 3 9 12 13 13 9 10 11 8 6 9 12 16 18 6 3 16 13 3 4 7 14 15 11 12 12 12 11 9 10
8 8 9 8 7 6 6 7 8 8 9 9 9 11 12 13 14 14 15 15 15 15 14 10 7 5 3 4 9 11 9 8 8 9 10 10 11 13 14 13 15 18 14 7 10 15 9 5 11 6 1 3 1 2 3 1 2 4 3 9 13 12 16 14 12 9 7 5 5 8 10 13 11 12 20 15 4 4 8 14 16 13 12 11 11 10 9 10
8 9 8 7 6 6 6 7 7 8 9 9 10 11 12 13 14 15 14 14 14 14 13 9 6 5 3 5 6 10 13 12 12 13 12 11 11 11 12 11 13 16 14 7 4 10 11 8 10 5 1 3 3 2 1 2 1 5 2 4 10 10 12 8 4 2 4 5 8 7 6 9 11 16 18 7 2 5 9 13 14 12 10 9 9 9 10 11
7 7 6 6 6 6 7 7 7 9 9 9 10 11 13 14 14 14 13 13 12 11 9 6 5 6 4 6 3 4 8 9 11 13 13 12 10 8 8 8 11 13 12 8 3 3 10 10 6 2 1 3 2 2 2 0 1 5 3 2 5 7 7 2 4 3 3 4 10 8 7 10 11 15 13 0 2 5 9 14 14 12 10 9 10 10 12 14
5 5 5 6 6 6 7 7 8 9 9 10 11 13 14 13 12 11 10 9 8 6 3 3 6 6 2 7 4 3 4 5 8 12 12 12 10 6 6 8 9 9 8 7 3 2 9 10 4 2 1 0 1 4 4 2 2 4 4 5 5 5 7 7 3 5 7 2 7 9 6 9 10 13 10 3 2 4 9 15 14 14 15 14 13 12 14 15
4 4 5 5 6 7 7 8 10 10 11 11 12 14 12 9 8 8 6 5 2 2 4 5 8 5 4 4 2 2 2 4 6 9 10 12 11 6 8 9 7 6 5 4 5 7 9 7 2 1 1 1 4 4 4 4 5 4 5 8 6 7 8 7 6 5 6 3 6 11 8 9 9 11 10 2 2 6 11 18 19 18 17 16 15 13 13 14
4 4 4 5 6 7 8 9 10 11 12 12 14 13 7 5 6 5 4 4 6 8 6 5 7 4 4 3 3 3 1 3 5 5 7 10 10 9 10 7 5 7 9 8 8 8 5 3 1 0 2 3 2 2 4 5 7 5 5 7 7 9 9 6 7 3 3 5 8 11 11 13 14 14 16 13 12 14 16 20 21 19 17 16 14 12 12 11
4 4 4 4 6 7 8 9 11 12 12 13 14 10 3 3 4 6 7 8 9 8 6 5 5 2 4 3 2 2 2 2 4 3 6 8 9 11 9 6 6 9 10 5 4 4 0 1 1 3 4 4 4 5 6 8 10 8 4 6 6 7 9 9 9 4 3 7 7 9 13 16 17 16 17 19 18 17 18 19 18 18 19 17 14 13 11 8
3 4 4 5 6 7 8 10 12 13 12 13 12 5 2 3 2 5 5 4 3 2 0 3 4 2 3 2 3 2 2 4 4 4 7 9 11 11 7 6 7 7 6 4 4 4 2 3 3 4 6 8 9 10 13 14 11 7 4 7 9 8 9 11 12 8 6 10 11 13 17 17 16 15 15 18 17 17 21 19 16 17 16 15 15 12 7 5
3 4 4 5 6 7 9 10 12 12 12 14 11 2 1 2 1 1 1 2 4 4 4 4 7 5 7 6 1 2 3 4 3 3 8 11 12 10 5 4 4 3 5 4 5 4 3 6 6 8 11 13 12 13 16 13 7 5 6 9 10 11 12 12 15 10 2 6 11 13 18 19 17 16 15 17 19 20 22 19 17 17 14 14 15 9 3 2
2 3 3 4 5 7 8 10 11 11 11 12 9 2 0 2 2 2 3 5 7 7 8 11 9 10 14 8 1 2 1 2 2 4 8 11 11 8 5 5 5 4 3 3 3 3 2 8 9 13 15 8 4 5 8 9 9 10 9 10 11 10 13 13 14 12 2 3 9 10 17 18 17 19 18 18 21 20 19 17 18 19 17 14 8 3 4 3
1 3 4 5 6 7 8 10 11 9 9 10 8 4 2 0 1 1 2 5 7 6 10 12 7 9 16 10 3 1 3 4 2 4 8 10 6 5 4 7 7 4 4 3 2 2 5 9 11 15 10 1 3 1 2 7 10 10 8 8 9 8 12 12 10 9 2 2 8 10 15 15 17 22 20 18 17 16 16 15 17 19 18 10 5 6 4 4
3 4 6 7 7 8 9 11 10 7 8 8 7 4 1 1 2 2 1 4 6 4 6 7 4 6 10 8 3 4 5 7 4 2 9 10 3 2 4 7 7 2 5 8 8 6 5 6 11 14 6 1 4 2 2 7 7 8 8 8 9 7 9 8 5 2 1 4 9 13 14 13 15 17 13 12 11 13 15 15 18 17 11 6 7 5 4 5
5 5 6 7 8 8 9 11 8 5 7 6 5 4 2 0 2 2 1 3 4 4 3 2 3 4 5 4 2 5 6 4 2 1 9 10 4 3 4 6 6 4 7 12 12 12 8 1 2 7 5 7 11 6 5 8 8 9 8 8 11 11 11 11 7 5 7 8 5 10 12 7 5 3 1 1 4 8 11 14 17 7 5 5 4 2 2 3
9 8 6 6 7 7 9 10 5 3 6 2 3 4 3 1 2 3 2 2 2 3 1 2 1 1 1 1 0 2 4 2 1 2 3 4 2 3 2 2 3 6 9 11 11 13 8 2 3 4 5 8 10 8 9 9 9 8 7 11 16 15 14 15 11 7 8 5 2 7 10 3 2 1 4 3 5 8 9 13 10 4 10 6 5 3 0 1
11 11 9 8 7 7 7 6 3 3 5 0 1 5 3 2 1 4 2 2 2 1 1 1 1 1 1 1 2 1 3 2 2 2 2 1 1 1 1 1 0 3 4 5 5 5 4 2 2 3 5 6 5 8 10 10 8 8 3 7 13 13 12 12 10 5 5 4 2 3 6 6 4 4 6 7 8 11 13 12 4 6 7 5 4 2 1 3
14 13 11 10 9 8 4 2 3 3 3 1 2 4 3 2 1 4 2 3 2 1 2 1 0 1 0 1 1 2 2 1 1 1 2 0 1 1 3 3 2 1 2 2 3 2 3 2 1 2 4 5 5 8 8 10 7 5 1 0 5 7 8 6 5 5 5 6 3 3 5 8 7 3 3 4 7 13 17 11 3 7 7 7 5 3 4 5
14 12 11 11 11 10 7 4 3 2 2 2 2 3 3 1 2 2 2 4 2 2 2 1 2 2 1 0 1 1 1 1 1 1 1 0 1 2 4 5 4 2 3 4 5 1 2 3 3 5 5 5 7 5 3 10 7 2 3 2 1 1 3 2 3 5 3 5 4 4 5 6 8 2 2 2 7 11 11 6 8 10 8 7 6 6 6 8
12 11 10 11 10 10 10 8 5 4 5 4 3 4 3 2 2 1 1 3 1 2 1 1 3 1 1 1 0 2 1 1 1 1 1 0 0 1 2 3 2 3 3 4 8 4 1 1 2 5 5 6 5 1 2 9 6 1 4 3 3 2 1 1 3 3 3 6 5 6 8 7 8 1 3 1 4 5 6 6 8 11 10 9 10 9 10 12
8 8 8 8 9 9 9 10 11 9 6 5 4 4 3 1 1 1 4 3 1 1 1 1 2 1 0 3 1 0 1 0 2 1 1 1 1 1 1 0 1 2 2 3 7 5 1 2 1 4 6 3 3 4 1 3 1 2 4 1 1 2 1 1 2 1 4 7 5 10 13 9 6 1 2 0 1 3 4 4 5 13 13 13 13 12 13 14
5 5 6 7 8 7 6 6 11 11 7 5 4 2 2 1 1 4 5 2 1 0 2 1 1 1 1 2 1 1 1 1 1 1 1 1 1 1 1 2 1 1 2 3 5 3 2 3 3 2 2 1 4 3 1 2 2 1 1 2 3 2 1 2 2 2 5 7 2 5 7 9 8 2 1 2 4 3 2 4 5 12 13 12 13 12 13 12
5 4 5 7 8 8 7 2 3 7 7 5 4 2 0 1 3 4 2 0 1 1 2 1 0 1 1 0 0 1 1 0 0 1 2 1 1 3 3 3 2 2 3 1 1 2 3 5 3 0 1 3 4 2 1 2 1 2 1 1 3 3 2 3 2 2 6 4 1 1 1 6 9 5 6 10 10 4 0 4 8 11 11 11 13 11 11 11
5 4 5 7 9 9 9 5 3 6 7 7 3 0 1 3 4 2 3 2 1 1 2 2 1 2 2 1 1 2 0 1 3 1 1 1 1 2 4 2 2 2 4 1 3 5 3 1 3 2 2 4 7 6 3 2 4 5 4 3 3 3 3 4 3 3 6 2 2 1 1 5 6 4 9 14 8 3 6 8 10 13 13 13 12 11 11 11
4 4 5 7 9 10 10 8 6 6 9 7 2 1 2 6 3 1 3 4 1 1 1 2 2 1 2 2 1 3 2 1 3 2 1 2 1 2 3 2 3 2 0 1 3 3 5 4 3 4 1 6 10 8 1 2 4 5 2 2 3 3 3 5 4 5 7 5 1 2 2 3 3 1 2 5 2 7 10 11 13 13 12 11 11 11 11 12
4 5 5 6 9 11 11 10 8 9 11 6 1 2 5 6 2 1 3 3 1 1 1 1 2 1 3 3 1 2 3 3 3 3 2 3 2 3 3 3 5 4 3 1 1 1 5 7 3 1 1 6 9 4 3 4 1 2 1 1 3 3 4 5 5 5 5 6 4 4 3 4 3 2 4 3 2 10 14 14 13 13 11 10 11 11 11 11
4 5 6 8 11 12 12 11 11 13 11 5 1 5 6 3 1 1 1 1 1 2 1 2 2 3 5 3 1 2 3 3 2 3 3 3 3 4 3 2 5 8 6 3 2 2 4 6 3 4 2 7 7 3 4 3 2 1 2 3 2 0 2 4 4 1 1 6 6 5 6 7 5 5 3 3 7 12 13 13 13 12 12 12 11 10 9 8
5 5 5 9 12 13 13 13 14 15 9 3 5 7 3 2 3 2 2 1 0 3 1 3 2 2 4 3 2 3 3 2 3 3 3 3 3 4 4 3 4 11 10 5 3 4 5 7 3 6 8 5 2 2 3 2 2 3 3 3 1 1 0 2 3 0 2 7 5 6 12 11 6 4 3 7 9 10 10 10 10 10 10 10 9 8 7 7
4 4 5 9 13 12 13 16 18 14 5 3 9 9 3 3 3 3 3 2 0 1 2 5 3 2 4 5 4 3 4 4 3 3 3 3 3 4 4 3 4 8 8 4 2 3 4 7 5 6 9 3 4 1 3 2 2 2 2 1 1 2 3 3 3 2 5 8 5 6 11 9 6 6 3 3 7 8 6 8 9 9 9 8 7 7 7 7
4 2 2 7 12 13 16 20 18 10 5 6 11 9 4 5 3 2 3 2 1 2 4 7 5 3 4 5 4 2 4 5 3 3 4 3 4 4 4 3 3 2 2 3 3 1 2 5 5 1 2 2 4 3 5 4 2 1 2 1 1 2 4 3 2 1 4 6 5 4 6 6 5 3 0 4 7 6 5 7 8 8 7 6 6 6 6 6
4 1 1 3 7 13 20 20 13 7 6 7 9 6 2 2 2 1 0 2 2 2 4 6 6 6 6 4 5 3 3 4 3 4 3 1 4 3 2 1 1 1 2 0 2 1 1 4 6 1 1 1 3 4 5 6 5 3 3 4 3 2 1 1 1 1 3 5 5 4 5 5 2 3 5 7 6 5 6 7 6 5 6 6 5 5 4 4
3 1 1 1 6 17 20 14 7 5 6 6 7 7 3 1 2 0 1 2 3 2 1 3 5 5 4 3 4 2 1 2 3 4 3 2 6 5 3 4 3 1 2 1 1 2 2 3 5 4 3 6 5 2 3 5 3 3 5 6 6 4 2 3 4 4 4 5 5 6 7 4 1 3 5 8 5 4 6 6 5 5 5 5 5 4 4 3
2 1 1 3 11 21 16 7 5 3 4 5 5 4 3 1 2 3 1 1 2 2 0 2 4 5 4 5 6 4 3 3 4 6 5 5 9 6 3 6 5 2 0 1 1 1 1 0 3 5 6 9 7 1 2 2 3 3 3 2 2 3 4 6 6 4 4 6 6 8 9 4 2 2 4 6 5 5 5 5 5 4 3 4 4 5 5 5
2 1 1 3 14 20 11 5 6 5 4 4 1 2 3 2 2 3 1 1 2 2 2 2 4 6 6 6 6 6 5 4 7 9 7 4 5 3 4 7 5 3 3 3 2 2 1 1 3 5 5 7 8 1 3 2 1 2 4 1 2 4 3 4 4 2 2 4 5 6 7 2 2 3 4 5 5 6 4 3 4 4 3 3 3 4 5 5
1 1 1 2 10 13 8 5 7 8 8 6 5 7 6 3 4 4 3 3 3 2 2 2 3 5 4 1 1 3 3 3 6 7 4 2 1 2 4 6 4 1 1 2 1 1 2 1 2 4 4 4 5 2 1 2 2 1 2 1 1 3 5 5 3 1 3 6 8 8 6 1 3 4 4 5 6 6 4 4 3 3 3 3 3 3 4 4
1 1 1 1 2 4 4 3 3 7 10 10 11 12 10 7 5 6 6 6 4 3 3 3 2 2 2 0 1 1 3 3 3 1 1 1 0 2 4 6 4 2 1 2 2 1 3 2 2 5 7 6 6 5 2 1 1 1 1 1 2 2 3 5 5 5 5 5 8 8 5 1 3 5 7 6 6 5 5 4 2 2 1 1 1 2 3 3
1 1 1 1 2 1 1 1 1 5 8 9 9 10 13 12 6 3 7 8 7 7 7 5 2 2 3 4 5 7 7 6 5 3 3 3 1 2 3 4 5 4 3 3 3 1 2 2 4 8 10 9 11 11 4 1 2 5 4 3 5 4 3 3 5 6 5 4 5 6 7 7 4 5 8 4 5 4 4 3 3 3 3 3 2 3 3 3
1 1 2 2 1 2 2 1 2 3 3 6 6 4 8 12 7 3 5 4 2 4 5 4 4 5 5 6 7 8 7 6 6 5 7 6 2 0 1 2 5 6 4 1 1 1 2 4 7 10 13 13 15 14 5 1 5 8 7 7 9 8 7 8 9 8 7 8 7 6 9 11 8 9 13 6 4 5 3 3 3 3 4 5 4 5 5 5
0 1 1 1 1 3 3 2 3 3 3 3 3 2 3 8 7 4 2 0 1 1 2 2 2 1 1 2 2 3 2 3 3 2 2 2 1 0 1 2 3 4 4 1 0 1 3 7 8 9 12 12 11 9 5 4 6 7 8 10 11 12 14 13 13 13 12 12 11 10 14 15 13 13 13 4 4 4 1 1 3 3 4 5 6 7 7 7
1 1 1 2 1 1 1 2 3 3 5 4 3 4 5 8 9 5 2 1 2 1 0 2 1 4 3 1 1 3 4 4 5 3 2 1 1 1 2 1 1 2 5 3 2 1 2 5 3 4 7 7 7 8 8 7 7 8 10 11 13 16 17 15 15 16 17 17 17 17 20 20 15 8 1 4 3 0 1 2 3 4 4 5 6 7 8 8
0 1 1 2 2 2 2 2 3 2 4 4 4 5 4 7 12 7 0 1 5 3 1 2 1 3 2 2 1 4 5 3 5 4 2 2 1 1 1 2 0 2 4 2 2 3 3 2 1 2 4 6 7 9 9 8 8 10 11 13 16 18 17 16 16 15 15 17 19 19 21 18 7 3 6 3 1 2 3 5 5 4 4 5 6 8 8 8
2 2 1 1 2 2 2 1 2 2 3 4 5 5 2 4 7 4 0 2 3 3 2 4 4 4 3 2 2 4 4 3 3 3 2 2 2 0 0 0 1 2 3 1 1 2 2 2 1 2 5 6 7 9 8 6 8 10 12 16 20 18 15 15 15 13 14 16 17 17 15 9 2 6 3 2 2 2 5 6 6 5 5 5 7 8 9 9
2 3 2 1 1 2 3 2 3 3 2 2 3 3 1 1 1 2 3 2 5 4 4 6 5 3 2 4 3 3 4 5 3 2 2 3 3 2 3 4 4 3 2 1 1 1 2 2 2 4 5 6 8 9 4 4 7 10 10 12 16 16 16 16 15 16 18 16 13 11 6 1 4 5 2 2 0 4 7 7 6 6 7 7 8 9 9 9
Wind_Direction
22 20 16 15 11 10 8 5 5 2 0 353 348 344 340 340 336 338 339 337 338 335 334 337 338 341 340 341 338 331 326 315 299 265 245 254 250 230 230 231 204 202 200 183 170 160 144 160 159 154 163 154 324 293 148 5 165 219 224 239 254 252 233 196 211 211 263 292 267 182 173 242 274 249 198 236 234 242 262 259 232 228 240 240 246 255 254 262
11 8 5 3 358 357 354 351 348 345 345 343 340 335 334 332 330 330 328 329 327 325 327 328 330 334 335 337 337 331 326 316 289 258 247 225 205 233 235 229 217 200 194 184 178 169 163 174 163 166 181 184 264 59 217 201 205 228 218 242 248 249 221 190 226 220 228 273 288 281 180 228 271 287 70 264 265 251 265 270 242 236 245 239 239 240 244 247
358 354 354 352 350 352 347 345 341 341 340 337 337 333 330 327 327 326 323 324 322 320 322 324 327 330 329 333 334 334 329 311 283 240 196 151 183 251 244 224 212 195 192 192 188 184 188 174 164 172 190 210 139 134 223 172 199 227 216 248 249 247 239 214 233 230 236 272 289 283 231 242 256 236 218 262 276 270 262 269 256 249 257 249 231 220 224 229
353 350 348 345 345 348 346 343 338 339 335 332 332 328 326 323 322 322 321 321 319 318 317 321 326 326 327 329 331 337 328 297 267 160 148 122 80 276 247 221 198 190 191 194 191 190 181 151 156 169 202 211 131 195 225 189 196 183 200 247 255 241 251 231 224 233 245 275 279 280 288 274 266 188 229 247 273 270 258 261 257 258 273 279 256 206 198 216
351 348 345 343 343 344 344 339 335 334 329 328 324 320 320 316 315 315 315 315 316 315 314 320 324 326 328 325 328 340 331 305 166 151 159 95 12 334 244 207 190 187 185 186 175 167 154 144 150 141 215 221 167 200 221 187 170 210 220 247 257 215 257 248 216 231 236 243 266 267 275 283 305 214 230 227 250 263 264 271 270 270 278 286 285 238 191 218
347 344 340 340 338 338 340 335 333 330 326 324 315 314 312 308 310 308 309 309 311 312 311 317 322 326 328 324 324 334 318 297 196 186 217 289 304 304 214 190 182 183 184 181 157 154 152 152 178 181 205 235 206 217 221 163 175 251 237 240 252 237 247 257 177 182 177 217 251 255 282 300 268 261 242 219 237 252 263 273 278 280 281 284 293 264 229 228
342 338 336 335 332 330 333 332 334 331 326 322 313 314 310 309 309 305 307 306 308 309 309 316 319 322 326 329 314 311 261 261 260 248 261 273 276 268 207 184 180 185 183 175 158 166 166 168 201 193 202 236 220 222 205 155 189 250 257 243 250 248 248 259 246 195 206 238 253 273 300 281 259 265 245 221 238 250 260 268 271 277 279 280 279 265 253 244
338 332 329 330 328 326 328 333 339 332 326 322 316 315 312 310 307 304 305 303 305 305 306 311 314 320 324 329 268 273 210 248 269 271 271 266 259 240 202 179 182 187 184 185 175 174 173 184 199 167 219 235 208 208 174 193 209 225 251 256 250 253 253 261 258 237 243 249 254 276 277 267 264 279 271 250 248 252 258 265 267 270 274 270 266 264 260 254
330 326 325 325 327 329 333 339 338 332 328 323 317 317 312 309 305 303 302 299 301 299 302 305 306 315 312 295 196 272 237 252 273 273 270 259 247 226 195 184 188 187 187 197 186 175 181 200 201 185 240 240 193 210 172 216 228 213 243 268 270 270 269 265 260 243 241 243 222 241 261 265 275 312 277 257 247 253 255 262 266 264 268 267 260 259 256 255
326 325 323 323 329 333 338 342 339 336 331 325 321 319 313 309 305 301 299 297 296 295 295 295 297 301 286 171 207 264 252 259 269 262 264 250 235 209 193 196 193 187 188 193 190 185 194 206 176 165 284 239 206 210 169 213 249 185 260 287 276 274 277 251 255 253 240 243 215 223 259 266 277 49 273 260 223 245 251 259 264 256 261 264 258 256 251 252
327 324 320 324 334 338 344 345 343 341 336 331 325 320 314 310 305 301 299 296 294 292 291 288 285 277 243 181 232 260 253 255 261 254 256 241 222 203 200 204 196 193 188 185 200 201 208 182 131 121 289 171 197 197 197 236 333 11 324 295 277 276 279 245 243 250 231 240 213 217 257 268 263 204 255 261 189 213 255 265 267 256 256 261 261 261 253 249
321 318 320 331 343 346 351 350 347 345 339 332 325 321 315 309 305 301 298 295 292 289 287 284 269 245 217 224 241 249 253 253 259 261 254 236 213 205 206 207 201 201 198 195 214 213 214 162 157 183 231 147 209 218 237 301 11 325 310 291 287 287 285 264 246 238 210 216 175 192 252 263 242 231 247 256 233 223 253 266 270 265 261 264 266 266 260 254
316 318 327 342 351 354 356 353 352 347 341 334 327 322 314 309 305 301 299 295 292 288 285 281 257 215 217 262 238 241 253 250 251 256 249 230 211 207 210 210 205 207 213 219 234 220 209 178 180 212 143 198 248 115 154 79 84 278 256 280 293 288 284 269 225 203 202 191 154 174 260 268 242 246 253 249 186 235 248 260 268 267 263 263 264 267 267 263
312 324 338 347 353 357 358 358 356 351 344 336 330 324 316 311 306 303 303 298 294 289 282 268 223 177 203 267 257 239 250 242 241 243 240 225 207 201 205 207 205 209 218 223 259 232 197 177 165 178 166 238 287 94 222 126 207 274 277 230 271 271 276 270 135 146 239 188 161 191 260 272 266 270 270 119 115 256 263 265 269 270 269 264 260 261 266 267
312 332 340 344 352 357 2 3 357 353 347 340 333 326 320 314 311 313 310 302 299 288 258 179 170 163 244 270 262 268 247 234 231 234 238 223 203 191 191 191 194 201 208 212 229 177 173 166 151 197 199 167 273 261 269 301 247 251 271 254 232 234 262 280 257 212 241 226 170 199 252 268 262 273 279 73 103 253 271 273 273 273 272 269 265 261 263 268
318 335 339 347 355 1 5 2 358 355 351 344 335 328 323 321 326 330 327 321 309 152 139 150 160 167 285 271 244 274 233 214 223 233 235 216 208 195 167 163 155 159 159 145 139 133 145 154 161 273 271 223 232 246 267 284 263 222 234 260 254 254 271 288 287 243 217 184 197 217 253 275 262 274 281 264 237 262 276 280 279 277 275 271 267 261 258 266
326 335 345 354 358 4 4 1 359 357 355 348 337 332 329 340 350 2 37 82 111 114 114 140 150 160 265 246 255 269 198 207 219 226 216 203 204 187 154 133 118 122 114 106 121 125 127 146 169 280 210 240 213 211 254 262 260 234 217 245 253 256 270 286 287 297 163 188 221 228 241 260 265 278 284 281 280 279 278 279 281 280 277 272 269 265 262 266
321 329 344 357 1 4 0 1 359 357 0 351 340 338 350 9 28 72 86 102 109 110 103 116 143 205 233 206 264 270 116 170 188 176 189 181 176 176 157 129 133 130 122 116 136 145 149 147 207 233 214 226 201 202 233 237 249 260 250 262 273 251 247 261 268 296 282 250 251 249 248 257 263 267 275 279 281 279 274 273 276 276 275 277 277 272 272 276
319 328 347 357 359 359 356 358 357 357 1 355 348 353 62 21 71 96 84 94 115 171 77 138 183 262 290 253 285 270 156 151 161 152 158 156 157 159 139 126 137 143 150 160 176 175 175 157 180 223 222 223 212 206 224 236 253 285 299 280 285 278 260 263 267 269 281 279 270 265 268 274 276 271 272 279 282 278 273 272 273 272 274 279 277 276 288 299
310 317 335 348 348 349 350 351 353 358 1 360 357 345 116 4 249 113 20 269 245 259 296 249 221 261 292 287 287 197 198 172 164 151 154 153 151 142 117 118 128 164 185 170 171 162 184 201 194 209 226 232 223 215 230 251 293 314 287 274 273 278 276 274 277 274 244 275 271 267 275 281 283 280 275 277 278 271 270 274 276 276 276 273 273 286 339 2
290 316 328 338 340 346 353 352 351 360 3 4 6 358 106 3 307 338 322 273 252 247 258 247 232 247 260 274 54 123 256 218 146 116 154 154 152 159 156 155 163 192 190 124 120 108 201 219 212 221 233 246 249 234 248 267 283 274 267 276 273 270 275 273 277 283 279 267 272 268 276 283 285 281 271 264 266 269 273 277 279 278 273 269 280 3 49 50
337 354 352 351 354 354 0 359 352 360 8 17 35 59 78 26 263 298 311 285 267 239 242 247 247 255 257 273 318 22 331 268 193 114 152 151 162 204 165 164 196 199 146 130 155 174 215 227 225 230 235 10 31 31 274 257 261 263 261 272 273 273 282 276 264 275 301 264 283 289 288 287 279 273 269 261 259 265 270 267 266 268 267 276 9 40 13 342
338 345 346 345 346 345 350 351 349 2 13 30 58 73 86 216 217 178 193 281 283 249 235 248 255 259 265 289 290 225 247 254 257 157 162 156 164 222 165 184 204 171 156 190 210 223 227 226 230 234 228 208 249 225 235 264 258 246 246 263 273 272 278 274 250 275 0 268 288 301 291 280 269 262 262 266 258 256 262 259 257 261 274 321 17 10 312 294
281 294 312 314 317 323 328 331 333 359 10 35 66 53 54 250 202 161 204 262 283 276 237 230 247 255 278 306 240 201 219 236 291 197 172 172 165 153 187 200 193 190 203 208 219 236 242 109 203 233 208 219 241 233 226 259 261 238 228 246 266 266 264 269 282 333 312 273 287 310 295 278 261 235 134 282 244 252 260 256 256 261 54 47 52 52 288 273
265 271 269 271 284 292 303 312 306 339 353 40 63 18 37 42 173 172 266 277 261 272 180 150 207 239 259 337 54 202 198 178 338 340 176 195 174 130 178 193 204 225 215 211 225 245 253 101 110 205 194 211 231 233 224 233 260 258 214 222 250 266 272 276 293 328 308 275 45 343 315 296 163 115 3 329 267 264 251 244 257 40 66 68 82 93 238 305
262 267 252 239 247 262 288 298 241 307 343 133 0 359 22 20 175 189 253 300 253 257 102 162 200 102 116 35 9 249 181 151 351 7 89 288 332 121 231 147 163 259 216 209 235 258 262 164 166 217 197 190 208 243 231 214 249 273 218 215 244 263 271 276 294 309 293 294 31 7 308 287 257 251 285 280 263 265 256 248 277 47 56 56 72 90 69 60
261 264 251 237 235 239 255 265 225 284 339 228 322 356 4 2 186 197 249 286 273 118 89 316 11 70 80 5 322 219 180 102 77 75 80 33 128 150 246 203 184 263 151 198 265 241 207 193 169 195 189 182 208 247 225 188 226 271 49 194 238 254 262 263 280 264 274 315 306 186 234 276 282 257 249 262 249 252 256 263 1 57 62 67 76 72 63 66
253 254 246 240 239 232 227 236 237 244 265 261 307 330 342 345 213 225 286 287 294 112 101 60 121 94 63 272 297 89 45 0 132 81 34 293 168 158 233 231 223 217 157 205 255 248 149 198 197 176 182 206 219 251 166 170 212 284 65 54 112 256 271 229 253 260 276 315 285 184 182 266 285 263 166 260 250 249 267 309 29 49 58 71 67 52 48 52
243 243 242 238 232 225 225 233 234 232 248 262 283 292 313 311 261 281 258 262 282 109 79 104 148 93 35 192 345 72 102 345 45 21 18 188 307 44 242 231 205 212 183 215 251 271 81 191 218 185 202 227 218 357 122 182 207 103 114 100 88 94 72 156 251 280 275 280 263 175 174 255 292 278 154 240 270 280 330 8 54 66 66 63 49 31 33 42
235 233 231 221 213 211 215 230 238 238 244 251 266 293 291 261 263 231 216 228 347 84 114 167 160 20 215 177 151 65 201 26 61 60 32 99 99 48 8 1 140 206 205 231 252 256 148 109 221 211 222 233 114 68 21 184 155 127 152 125 109 169 116 180 238 299 270 270 233 176 186 225 282 338 168 132 316 310 348 351 69 77 67 52 43 31 36 45
215 214 207 201 205 203 194 229 242 230 228 236 234 259 264 240 189 223 227 234 316 130 136 152 110 57 184 173 81 53 134 41 58 152 142 127 157 140 226 227 192 209 222 235 245 240 173 183 218 225 212 145 118 116 53 65 78 127 134 335 292 244 205 207 183 151 249 265 211 169 190 217 237 253 7 349 323 279 252 299 6 61 63 50 49 43 41 47
196 196 186 187 198 199 194 221 220 198 202 208 198 189 207 254 232 214 204 335 268 225 149 171 191 136 149 33 1 140 134 149 120 146 145 148 196 189 223 223 190 272 273 237 256 276 222 203 200 284 216 181 179 180 117 106 120 124 115 307 283 292 288 241 222 209 245 265 53 50 272 233 241 253 268 282 296 294 130 352 20 60 70 59 55 51 45 44
202 193 179 185 195 200 207 208 163 168 182 184 196 55 95 233 241 183 163 207 229 88 107 114 93 145 172 274 253 157 199 177 158 166 138 127 247 225 242 232 141 269 284 310 321 307 285 194 142 195 239 181 191 207 215 190 166 166 172 175 205 255 279 267 270 267 266 282 77 74 246 249 261 256 248 259 275 1 45 52 65 76 76 68 60 52 46 43
224 209 194 193 198 205 211 206 191 182 177 173 180 62 171 224 241 92 193 213 246 26 105 109 99 153 190 254 257 170 229 238 144 152 134 127 201 236 234 211 162 180 255 319 322 315 290 296 163 196 222 155 191 217 211 109 156 185 178 156 207 219 246 270 268 265 279 290 161 146 182 244 274 61 232 256 328 41 52 73 82 76 71 71 64 51 44 40
239 226 219 210 206 206 204 196 191 186 175 160 119 203 209 221 195 148 212 218 297 332 55 108 127 249 233 218 234 187 226 250 135 139 182 176 202 208 193 186 177 168 129 165 287 117 262 268 185 148 343 166 192 217 96 98 162 222 86 105 245 218 206 248 254 244 289 302 257 199 215 250 268 291 264 250 66 62 61 65 67 62 59 59 54 47 40 34
246 239 235 225 221 215 202 190 186 188 179 147 175 222 229 239 197 175 182 149 147 128 29 288 188 258 265 221 196 182 203 235 166 170 211 201 228 220 204 208 177 175 168 175 216 178 246 261 150 112 232 194 188 171 147 176 207 141 158 201 230 179 185 241 262 216 277 281 261 237 254 262 269 280 256 137 83 70 65 59 58 55 51 51 50 45 39 36
248 236 230 226 228 221 204 192 185 188 186 161 210 225 231 239 228 212 170 124 163 131 112 289 222 233 267 251 223 172 171 221 176 190 222 202 230 203 196 249 177 185 199 196 225 218 233 263 224 181 225 225 150 141 177 201 167 148 198 208 151 29 126 237 261 172 211 251 256 256 266 272 276 269 159 114 86 68 60 58 60 55 52 56 57 51 44 42
221 215 237 234 228 216 199 190 183 182 181 193 223 233 223 213 221 205 173 149 250 160 196 251 241 215 246 257 256 155 166 209 169 182 224 204 220 167 165 239 182 186 216 198 220 239 217 258 262 206 224 221 84 175 225 203 172 184 244 266 92 233 227 198 215 209 229 248 249 248 263 271 264 252 226 107 81 78 64 53 54 48 50 54 54 54 48 43
175 168 260 227 216 205 190 183 176 175 186 208 227 235 220 219 219 176 172 160 141 162 217 239 233 231 241 238 246 180 185 209 170 186 222 210 227 186 154 236 203 178 248 180 203 254 171 251 272 162 203 129 112 200 213 188 157 60 286 292 86 243 240 203 189 192 231 250 252 239 251 261 268 271 127 73 70 80 71 61 58 49 51 51 48 51 44 41
168 162 271 201 198 188 178 174 171 182 201 210 228 230 198 223 233 116 171 224 212 200 233 234 220 231 246 234 234 234 218 221 200 214 228 216 253 235 110 313 234 97 14 306 249 254 142 242 254 234 67 188 192 200 199 197 192 182 213 215 197 199 238 267 254 214 231 252 251 246 246 242 303 15 90 100 82 74 72 72 67 52 52 53 49 50 44 46
175 198 220 139 164 166 165 169 183 194 206 224 237 236 230 257 249 265 35 220 234 257 257 229 225 235 254 253 242 217 174 224 221 232 241 238 248 249 47 4 322 80 92 59 261 235 216 238 249 253 234 229 227 160 187 230 226 204 210 208 209 198 196 255 243 200 214 240 232 249 257 228 89 34 93 111 110 102 93 90 83 62 50 49 47 44 42 40
182 175 152 121 159 164 162 180 198 179 214 225 223 229 239 274 244 230 95 120 232 252 175 217 237 241 246 256 257 247 235 236 231 238 242 238 239 242 8 358 340 20 8 299 13 323 304 277 261 262 249 257 277 46 88 320 355 328 270 228 252 240 211 242 250 228 226 229 221 242 254 233 117 85 104 113 118 112 108 111 106 93 66 54 42 30 29 26
176 154 109 136 169 174 175 197 199 200 226 214 169 208 218 242 251 222 180 186 219 230 228 222 233 239 244 256 257 253 255 247 239 242 247 251 246 255 352 351 356 15 346 318 345 7 357 233 257 258 252 273 284 286 89 71 86 289 280 243 269 269 252 256 264 295 272 231 233 252 250 220 121 122 115 114 118 113 108 101 98 102 91 67 46 32 29 20
131 104 40 163 183 188 194 200 201 212 220 221 233 234 229 237 244 237 232 225 212 190 216 242 243 238 247 290 261 247 258 255 248 245 243 270 330 66 19 359 8 28 351 332 299 288 275 256 284 290 282 283 274 244 89 83 124 271 289 278 301 324 327 311 273 243 249 220 228 253 260 235 119 144 159 146 134 125 109 87 76 84 79 54 37 29 19 12
107 113 309 294 231 212 218 220 209 213 216 225 236 240 244 248 241 236 239 241 232 206 223 257 251 221 231 83 89 229 233 230 253 271 151 226 273 72 24 9 34 94 36 17 8 289 270 261 265 284 284 279 277 278 290 50 51 336 288 309 347 15 330 310 278 254 250 216 220 245 267 308 106 168 195 172 136 132 132 130 129 118 105 32 8 356 349 355
146 154 163 284 349 350 263 316 233 216 217 222 232 241 243 243 244 212 219 238 242 221 225 240 210 195 223 226 240 259 251 223 216 239 251 260 264 73 23 22 57 52 14 16 25 324 257 244 227 249 264 269 274 280 292 57 274 265 257 269 284 261 234 269 265 257 287 302 268 263 278 288 285 239 237 205 127 131 143 151 171 177 194 224 249 277 298 311
216 166 147 161 196 207 224 240 195 203 208 208 220 248 238 232 236 214 204 226 248 225 230 234 207 207 221 223 234 252 257 233 216 235 258 265 268 62 342 66 57 16 349 352 34 168 233 256 241 245 256 261 267 273 271 212 246 253 254 256 263 263 254 258 260 266 300 304 279 276 284 279 273 271 278 285 120 132 142 165 200 214 216 222 236 251 263 276
300 115 105 316 249 203 209 208 175 185 200 195 215 284 244 216 214 210 185 96 326 262 236 208 162 154 217 204 195 219 260 264 245 225 235 264 306 323 322 83 67 3 358 346 272 156 236 262 257 259 266 261 262 267 253 237 247 245 245 249 255 260 257 256 258 264 273 271 268 286 287 277 274 276 284 311 96 118 122 196 228 240 235 228 233 245 252 257
88 103 13 349 341 140 128 89 106 169 212 202 217 252 244 232 229 216 115 41 292 299 246 225 150 63 56 77 164 241 264 276 272 252 142 95 320 271 280 274 142 32 24 1 305 276 240 258 262 288 288 275 274 281 279 279 278 267 261 259 260 263 262 264 266 263 260 258 262 271 271 271 277 285 308 88 92 50 334 301 276 273 275 265 254 255 255 252
88 138 77 69 92 78 52 58 90 145 216 216 234 242 234 243 247 243 157 308 258 252 271 243 198 94 90 109 144 242 248 249 264 261 144 148 225 180 271 278 163 15 6 355 313 316 290 270 79 33 294 273 270 274 276 280 281 277 277 272 266 265 267 268 267 262 258 257 258 258 260 263 269 81 95 114 162 305 313 307 301 291 283 278 271 272 271 267
62 44 61 108 130 123 110 93 111 161 212 210 226 239 233 238 244 237 76 6 291 255 178 144 148 127 127 140 178 242 228 154 191 213 148 189 252 88 119 179 72 347 336 322 285 324 306 288 7 320 280 267 267 270 275 292 291 276 269 266 264 263 261 259 258 258 258 260 259 257 260 261 162 105 98 145 168 304 311 310 309 302 290 279 273 277 277 275
91 48 48 93 119 138 143 140 151 188 216 199 205 212 186 221 226 165 177 86 56 57 91 117 134 134 188 225 242 223 176 150 161 187 183 224 255 253 232 234 237 242 245 242 261 248 228 240 286 286 279 273 274 279 302 336 293 268 250 252 258 258 258 258 258 258 257 258 264 266 268 277 124 127 72 34 343 309 317 317 312 313 313 304 292 288 285 279